Fort Knox, KY

9:55 AM EDT on October 01, 2016 (GMT -0400)
Godman Army Air Field

Weather History for KFTK - March, 2013

Change the Weather History Date:

Saturday, March 30, 2013

  Actual Average Record
Temperature  
Mean Temperature 44 °F -  
Max Temperature 60 °F 61 °F 82 °F (1998)
Min Temperature 28 °F 40 °F 28 °F (2013)
Degree Days  
Heating Degree Days 22    
Moisture  
Dew Point 35 °F    
Average Humidity 92    
Maximum Humidity 100    
Minimum Humidity 41    
Precipitation  
Precipitation 0.00 in - - ()
Sea Level Pressure  
Sea Level Pressure 30.19 in    
Wind  
Wind Speed 1 mph (SE)    
Max Wind Speed 14 mph    
Max Gust Speed -    
Visibility 3 miles    
Events Fog , Rain    
Averages and records for this station are not official NWS values.
T = Trace of Precipitation, MM = Missing Value Source: NWS Daily Summary

Daily Weather History Graph

Daily Weather History Graph

Search for Another Location

Airport or City:

Trip Planner

Search our weather history database for the weather conditions in past years. The results will help you decide how hot, cold, wet, or windy it might be!

Date:

Astronomy

Mar. 30, 2013 Rise Set
Actual Time 7:31 AM EDT 8:05 PM EDT
Civil Twilight 7:05 AM EDT 8:31 PM EDT
Nautical Twilight 6:34 AM EDT 9:02 PM EDT
Astronomical Twilight 6:02 AM EDT 9:34 PM EDT
Moon No Moon Rise 9:30 AM EDT (3/30)
Length of Visible Light 13h 26m
Length of Day
12h 33m
Waning Gibbous, 86% of the Moon is Illuminated
Mar 30
Waning Gibbous
Apr 3
Last Quarter
Apr 10
New
Apr 18
First Quarter
Apr 25
Full

Hourly Weather History & Observations

Time (EDT) Temp. Windchill Dew Point Humidity Pressure Visibility Wind Dir Wind Speed Gust Speed Precip Events Conditions
12:01 AM 37.4 °F - 35.6 °F 93% 30.25 in 0.8 mi Calm Calm - N/A   Clear
12:03 AM 37.4 °F - 35.6 °F 93% 30.25 in 0.5 mi Calm Calm - N/A Fog Fog
12:08 AM 37.4 °F - 37.4 °F 100% 30.25 in 0.2 mi Calm Calm - N/A Fog Fog
12:55 AM 35.2 °F - 34.7 °F 98% 30.24 in 0.2 mi Calm Calm - N/A Fog Fog
1:24 AM 35.6 °F - 35.6 °F 100% 30.23 in 0.5 mi Calm Calm - N/A Fog Fog
1:26 AM 35.6 °F - 35.6 °F 100% 30.23 in 0.8 mi Calm Calm - N/A   Clear
1:28 AM 35.6 °F - 35.6 °F 100% 30.23 in 1.2 mi Calm Calm - N/A   Clear
1:29 AM 35.6 °F - 35.6 °F 100% 30.23 in 2.0 mi Calm Calm - N/A   Clear
1:30 AM 35.6 °F - 33.8 °F 93% 30.23 in 3.0 mi Calm Calm - N/A   Clear
1:55 AM 34.3 °F - 34.2 °F 99% 30.23 in 6.0 mi Calm Calm - N/A   Clear
2:02 AM 33.8 °F - 33.8 °F 100% 30.23 in 2.5 mi Calm Calm - N/A   Clear
2:04 AM 33.8 °F - 33.8 °F 100% 30.23 in 1.8 mi Calm Calm - N/A   Clear
2:06 AM 33.8 °F - 33.8 °F 100% 30.23 in 1.5 mi Calm Calm - N/A   Clear
2:07 AM 33.8 °F - 33.8 °F 100% 30.23 in 1.0 mi Calm Calm - N/A   Clear
2:09 AM 33.8 °F - 33.8 °F 100% 30.23 in 0.8 mi Calm Calm - N/A   Clear
2:17 AM 35.6 °F - 33.8 °F 93% 30.23 in 1.0 mi Calm Calm - N/A   Clear
2:19 AM 35.6 °F - 33.8 °F 93% 30.23 in 1.2 mi Calm Calm - N/A   Clear
2:20 AM 35.6 °F - 33.8 °F 93% 30.23 in 1.0 mi Calm Calm - N/A   Clear
2:22 AM 35.6 °F - 33.8 °F 93% 30.23 in 0.8 mi Calm Calm - N/A   Clear
2:24 AM 33.8 °F - 33.8 °F 100% 30.23 in 0.5 mi Calm Calm - N/A Fog Fog
2:41 AM 33.8 °F - 33.8 °F 100% 30.22 in 0.8 mi Calm Calm - N/A   Clear
2:48 AM 35.6 °F - 33.8 °F 93% 30.22 in 0.5 mi Calm Calm - N/A Fog Fog
2:55 AM 34.3 °F - 34.2 °F 99% 30.23 in 0.5 mi Calm Calm - N/A Fog Fog
2:57 AM 33.8 °F - 33.8 °F 100% 30.23 in 0.8 mi Calm Calm - N/A   Clear
2:59 AM 33.8 °F - 33.8 °F 100% 30.23 in 1.0 mi Calm Calm - N/A   Clear
3:00 AM 33.8 °F - 33.8 °F 100% 30.23 in 1.5 mi Calm Calm - N/A   Clear
3:01 AM 33.8 °F - 33.8 °F 100% 30.23 in 2.0 mi Calm Calm - N/A   Clear
3:04 AM 33.8 °F - 33.8 °F 100% 30.22 in 3.0 mi Calm Calm - N/A   Clear
3:29 AM 32.0 °F - 32.0 °F 100% 30.22 in 2.0 mi Calm Calm - N/A   Clear
3:30 AM 32.0 °F - 32.0 °F 100% 30.22 in 1.2 mi Calm Calm - N/A   Clear
3:31 AM 32.0 °F - 32.0 °F 100% 30.22 in 1.0 mi Calm Calm - N/A   Clear
3:32 AM 32.0 °F - 32.0 °F 100% 30.22 in 0.8 mi Calm Calm - N/A   Clear
3:34 AM 32.0 °F - 32.0 °F 100% 30.22 in 0.5 mi Calm Calm - N/A Fog Fog
3:36 AM 32.0 °F - 32.0 °F 100% 30.22 in 0.2 mi Calm Calm - N/A Fog Fog
3:55 AM 31.5 °F - 31.3 °F 99% 30.22 in 0.2 mi Calm Calm - N/A Fog Light Freezing Fog
4:10 AM 32.0 °F - 32.0 °F 100% 30.22 in 0.5 mi Calm Calm - N/A Fog Fog
4:19 AM 32.0 °F - 32.0 °F 100% 30.22 in 0.2 mi Calm Calm - N/A Fog Light Freezing Fog
4:27 AM 30.2 °F - 30.2 °F 100% 30.22 in 0.2 mi Calm Calm - N/A Fog Light Freezing Fog
4:55 AM 31.1 °F - 30.7 °F 99% 30.21 in 0.2 mi Calm Calm - N/A Fog Light Freezing Fog
5:55 AM 30.2 °F - 30.2 °F 100% 30.22 in 0.2 mi Calm Calm - N/A Fog Light Freezing Fog
6:14 AM 30.2 °F - 30.2 °F 100% 30.22 in 0.5 mi Calm Calm - N/A Fog Light Freezing Fog
6:19 AM 30.2 °F - 30.2 °F 100% 30.22 in 0.8 mi Calm Calm - N/A   Mist
6:21 AM 30.2 °F - 30.2 °F 100% 30.22 in 1.0 mi Calm Calm - N/A   Mist
6:24 AM 30.2 °F - 30.2 °F 100% 30.22 in 0.8 mi Calm Calm - N/A   Mist
6:31 AM 30.2 °F - 30.2 °F 100% 30.22 in 0.5 mi Calm Calm - N/A Fog Light Freezing Fog
6:44 AM 30.2 °F - 30.2 °F 100% 30.24 in 0.8 mi Calm Calm - N/A   Mist
6:48 AM 30.2 °F - 30.2 °F 100% 30.24 in 0.5 mi Calm Calm - N/A Fog Light Freezing Fog
6:53 AM 30.2 °F - 30.2 °F 100% 30.23 in 0.2 mi Calm Calm - N/A Fog Light Freezing Fog
6:55 AM 29.7 °F - 29.7 °F 100% 30.24 in 0.2 mi Calm Calm - N/A Fog Light Freezing Fog
7:13 AM 28.4 °F - 28.4 °F 100% 30.21 in 0.5 mi Calm Calm - N/A Fog Light Freezing Fog
7:27 AM 28.4 °F - 28.4 °F 100% 30.20 in 0.2 mi Calm Calm - N/A Fog Light Freezing Fog
7:55 AM 29.1 °F - 28.8 °F 99% 30.24 in 0.2 mi Calm Calm - N/A Fog Light Freezing Fog
8:55 AM 33.1 °F 30.0 °F 33.1 °F 100% 30.22 in 0.2 mi East 3.5 mph - N/A Fog Fog
9:55 AM 37.6 °F 35.1 °F 37.6 °F 100% 30.22 in 0.2 mi East 3.5 mph - N/A Fog Fog
10:09 AM 39.2 °F 37.0 °F 39.2 °F 100% 30.19 in 0.8 mi East 3.5 mph - N/A   Mist
10:17 AM 39.2 °F 37.0 °F 39.2 °F 100% 30.19 in 1.0 mi ESE 3.5 mph - N/A   Overcast
10:22 AM 39.2 °F 35.9 °F 39.2 °F 100% 30.19 in 1.2 mi ESE 4.6 mph - N/A   Overcast
10:25 AM 39.2 °F 35.9 °F 39.2 °F 100% 30.19 in 1.8 mi ESE 4.6 mph - N/A   Overcast
10:31 AM 39.2 °F 37.0 °F 39.2 °F 100% 30.19 in 2.0 mi East 3.5 mph - N/A   Overcast
10:34 AM 39.2 °F 37.0 °F 39.2 °F 100% 30.19 in 3.0 mi East 3.5 mph - N/A   Mostly Cloudy
10:55 AM 41.7 °F - 41.7 °F 100% 30.22 in 10.0 mi Calm Calm - N/A   Partly Cloudy
11:55 AM 48.9 °F - 48.7 °F 99% 30.19 in 10.0 mi East 11.5 mph - N/A   Clear
12:55 PM 54.1 °F - 38.1 °F 55% 30.16 in 10.0 mi ESE 10.4 mph - N/A   Clear
1:55 PM 56.8 °F - 35.8 °F 45% 30.13 in 10.0 mi SE 8.1 mph - N/A   Clear
2:55 PM 58.1 °F - 35.8 °F 43% 30.10 in 10.0 mi ESE 8.1 mph - N/A   Mostly Cloudy
3:55 PM 59.4 °F - 35.8 °F 41% 30.07 in 10.0 mi SE 13.8 mph - N/A   Overcast
4:55 PM 58.8 °F - 38.1 °F 46% 30.05 in 10.0 mi South 11.5 mph - N/A   Clear
5:55 PM 56.8 °F - 38.8 °F 51% 30.04 in 10.0 mi South 6.9 mph - N/A   Overcast
6:55 PM 55.2 °F - 39.7 °F 56% 30.02 in 10.0 mi SSE 9.2 mph - N/A   Overcast
7:55 PM 53.4 °F - 40.8 °F 62% 30.01 in 10.0 mi SSE 5.8 mph - N/A   Overcast
8:55 PM 52.9 °F - 41.9 °F 66% 29.99 in 10.0 mi SSE 5.8 mph - N/A   Overcast
9:55 PM 52.3 °F - 42.3 °F 69% 29.98 in 10.0 mi SSE 5.8 mph - N/A   Overcast
10:55 PM 51.6 °F - 42.6 °F 71% 29.96 in 10.0 mi SSE 3.5 mph - N/A   Overcast
11:12 PM 51.8 °F - 42.8 °F 71% 29.96 in 10.0 mi Calm Calm - N/A Rain Light Rain
11:55 PM 50.9 °F - 45.1 °F 81% 29.95 in 10.0 mi South 3.5 mph - 0.00 in Rain Light Rain